EJU84PY LPPT-LEPA

Flight info

Callsign EJU84PY
Flight time 1h 23m
Altitude 36000
Route ORVED DCT UREDI DCT NVS DCT NANDO DCT FENXE DCT MABUX DCT RETBA DCT MOPIR DCT LASPO DCT ORVUS M871 GODOX
Aircraft A320/M-SDE3FGHIRWY/LB1

Departure

Time 2026-05-07 18:41
Airport Lisbon Humberto Delgado Airport (LPPT)

Arrival

Time 2026-05-07 20:05
Airport Palma de Mallorca Airport (LEPA)
Time Latitude Longitude Altitude Speed Heading
2026-05-07 17:45 38.76529 -9.13383 353 ft 0 kts 73°
2026-05-07 18:27 38.76524 -9.13404 348 ft 4 kts 64°
2026-05-07 18:27 38.76509 -9.13431 353 ft 4 kts 25°
2026-05-07 18:27 38.76493 -9.13435 350 ft 0 kts 344°
2026-05-07 18:34 38.76526 -9.13448 348 ft 9 kts 343°
2026-05-07 18:34 38.76597 -9.13474 346 ft 11 kts 343°
2026-05-07 18:35 38.76647 -9.13538 345 ft 12 kts 265°
2026-05-07 18:35 38.76627 -9.13650 354 ft 13 kts 257°
2026-05-07 18:35 38.76607 -9.13771 346 ft 15 kts 258°
2026-05-07 18:35 38.76585 -9.13907 355 ft 16 kts 258°
2026-05-07 18:36 38.76540 -9.14040 346 ft 17 kts 227°
2026-05-07 18:36 38.76495 -9.14153 345 ft 16 kts 269°
2026-05-07 18:36 38.76519 -9.14248 338 ft 0 kts 292°
2026-05-07 18:37 38.76524 -9.14262 339 ft 4 kts 293°
2026-05-07 18:37 38.76537 -9.14304 336 ft 0 kts 292°
2026-05-07 18:37 38.76538 -9.14304 336 ft 0 kts 292°
2026-05-07 18:39 38.76538 -9.14306 336 ft 0 kts 292°
2026-05-07 18:39 38.76539 -9.14308 336 ft 0 kts 292°
2026-05-07 18:40 38.76545 -9.14329 333 ft 7 kts 292°
2026-05-07 18:40 38.76585 -9.14411 333 ft 10 kts 344°
2026-05-07 18:40 38.76656 -9.14385 336 ft 14 kts 24°
2026-05-07 18:40 38.76929 -9.14239 350 ft 77 kts 24°
2026-05-07 18:41 38.77623 -9.13866 368 ft 134 kts 23°
2026-05-07 18:41 38.78635 -9.13334 428 ft 173 kts 20°
2026-05-07 18:41 38.79719 -9.12756 1085 ft 170 kts 19°
2026-05-07 18:41 38.80815 -9.12169 1768 ft 174 kts 18°
2026-05-07 18:42 38.81972 -9.11439 2164 ft 198 kts 27°
2026-05-07 18:42 38.83213 -9.10481 2491 ft 218 kts 27°
2026-05-07 18:42 38.84589 -9.09416 2790 ft 243 kts 28°
2026-05-07 18:42 38.86098 -9.08248 3303 ft 260 kts 28°
2026-05-07 18:43 38.87664 -9.07033 4085 ft 267 kts 28°
2026-05-07 18:43 38.89213 -9.05650 4823 ft 277 kts 44°
2026-05-07 18:43 38.90320 -9.03612 5599 ft 282 kts 66°
2026-05-07 18:43 38.91159 -9.01330 6459 ft 284 kts 67°
2026-05-07 18:44 38.92009 -8.99027 7289 ft 287 kts 68°
2026-05-07 18:44 38.92870 -8.96704 8115 ft 289 kts 67°
2026-05-07 18:44 38.93743 -8.94357 8913 ft 293 kts 67°
2026-05-07 18:44 38.94630 -8.91977 9743 ft 297 kts 67°
2026-05-07 18:45 38.95528 -8.89574 10469 ft 300 kts 67°
2026-05-07 18:45 38.96127 -8.87973 10954 ft 303 kts 67°
2026-05-07 18:45 38.97396 -8.84550 11294 ft 332 kts 67°
2026-05-07 18:45 38.98063 -8.82744 11521 ft 343 kts 67°
2026-05-07 18:46 38.99103 -8.79942 12136 ft 350 kts 67°
2026-05-07 18:46 39.00157 -8.77112 12816 ft 354 kts 67°
2026-05-07 18:46 39.01226 -8.74241 13523 ft 358 kts 67°
2026-05-07 18:46 39.02307 -8.71336 14152 ft 362 kts 67°
2026-05-07 18:47 39.03400 -8.68400 14755 ft 365 kts 67°
2026-05-07 18:47 39.04501 -8.65433 15344 ft 369 kts 67°
2026-05-07 18:47 39.05607 -8.62433 15934 ft 373 kts 67°
2026-05-07 18:47 39.06725 -8.59400 16537 ft 377 kts 67°
2026-05-07 18:48 39.07854 -8.56336 17117 ft 381 kts 67°
2026-05-07 18:48 39.08996 -8.53237 17717 ft 384 kts 67°
2026-05-07 18:48 39.10144 -8.50121 18295 ft 387 kts 67°
2026-05-07 18:48 39.11303 -8.46975 18769 ft 391 kts 66°
2026-05-07 18:49 39.12475 -8.43786 19239 ft 396 kts 66°
2026-05-07 18:49 39.13658 -8.40563 19705 ft 400 kts 66°
2026-05-07 18:49 39.14837 -8.37346 20167 ft 405 kts 66°
2026-05-07 18:49 39.16060 -8.34002 20628 ft 410 kts 66°
2026-05-07 18:50 39.17279 -8.30662 21075 ft 414 kts 66°
2026-05-07 18:50 39.18512 -8.27281 21514 ft 419 kts 66°
2026-05-07 18:50 39.19744 -8.23909 21951 ft 424 kts 66°
2026-05-07 18:50 39.21008 -8.20446 22394 ft 429 kts 66°
2026-05-07 18:51 39.22282 -8.16947 22840 ft 434 kts 66°
2026-05-07 18:51 39.23569 -8.13401 23263 ft 438 kts 66°
2026-05-07 18:51 39.24872 -8.09824 23667 ft 442 kts 65°
2026-05-07 18:51 39.26193 -8.06226 24052 ft 445 kts 65°
2026-05-07 18:52 39.27527 -8.02611 24441 ft 448 kts 65°
2026-05-07 18:52 39.28869 -7.98972 24828 ft 450 kts 65°
2026-05-07 18:52 39.30218 -7.95314 25194 ft 453 kts 65°
2026-05-07 18:52 39.31575 -7.91630 25572 ft 455 kts 65°
2026-05-07 18:53 39.32936 -7.87924 25932 ft 457 kts 65°
2026-05-07 18:53 39.34299 -7.84197 26291 ft 459 kts 65°
2026-05-07 18:53 39.35662 -7.80458 26644 ft 461 kts 65°
2026-05-07 18:53 39.37035 -7.76694 26989 ft 463 kts 64°
2026-05-07 18:54 39.38412 -7.72920 27338 ft 466 kts 64°
2026-05-07 18:54 39.39796 -7.69122 27680 ft 468 kts 64°
2026-05-07 18:54 39.41186 -7.65308 28006 ft 470 kts 64°
2026-05-07 18:54 39.42579 -7.61475 28336 ft 472 kts 64°
2026-05-07 18:55 39.43975 -7.57622 28646 ft 474 kts 64°
2026-05-07 18:55 39.45378 -7.53744 28951 ft 476 kts 64°
2026-05-07 18:55 39.46772 -7.49891 29243 ft 479 kts 64°
2026-05-07 18:55 39.48183 -7.45984 29524 ft 481 kts 64°
2026-05-07 18:56 39.49601 -7.42049 29804 ft 483 kts 64°
2026-05-07 18:56 39.51023 -7.38094 30043 ft 486 kts 64°
2026-05-07 18:56 39.52451 -7.34119 30252 ft 488 kts 64°
2026-05-07 18:56 39.53887 -7.30119 30453 ft 491 kts 64°
2026-05-07 18:57 39.55331 -7.26097 30647 ft 493 kts 64°
2026-05-07 18:57 39.56779 -7.22056 30840 ft 496 kts 64°
2026-05-07 18:57 39.58234 -7.17987 31062 ft 497 kts 64°
2026-05-07 18:57 39.59686 -7.13924 31329 ft 497 kts 64°
2026-05-07 18:58 39.61141 -7.09849 31602 ft 498 kts 64°
2026-05-07 18:58 39.62595 -7.05768 31865 ft 498 kts 64°
2026-05-07 18:58 39.64048 -7.01686 32120 ft 499 kts 63°
2026-05-07 18:58 39.65503 -6.97596 32390 ft 499 kts 63°
2026-05-07 18:59 39.66956 -6.93511 32652 ft 500 kts 63°
2026-05-07 18:59 39.68413 -6.89407 32919 ft 500 kts 63°
2026-05-07 18:59 39.69868 -6.85301 33198 ft 501 kts 63°
2026-05-07 18:59 39.71317 -6.81189 33473 ft 501 kts 63°
2026-05-07 19:00 39.72763 -6.77075 33741 ft 501 kts 63°
2026-05-07 19:00 39.74210 -6.72954 33980 ft 502 kts 63°
2026-05-07 19:00 39.75641 -6.68885 34223 ft 502 kts 63°
2026-05-07 19:00 39.77092 -6.64760 34458 ft 502 kts 63°
2026-05-07 19:01 39.78543 -6.60629 34688 ft 502 kts 63°
2026-05-07 19:01 39.79982 -6.56520 34914 ft 502 kts 63°
2026-05-07 19:01 39.80735 -6.54372 35041 ft 501 kts 63°
2026-05-07 19:01 39.81760 -6.51455 35187 ft 501 kts 63°
2026-05-07 19:02 39.83205 -6.47328 35394 ft 501 kts 63°
2026-05-07 19:02 39.84643 -6.43190 35599 ft 501 kts 63°
2026-05-07 19:02 39.86033 -6.39034 35794 ft 503 kts 68°
2026-05-07 19:03 39.88202 -6.30400 35857 ft 500 kts 70°
2026-05-07 19:03 39.90320 -6.21789 35864 ft 498 kts 70°
2026-05-07 19:04 39.92433 -6.13186 35870 ft 499 kts 70°
2026-05-07 19:04 39.94541 -6.04576 35867 ft 499 kts 70°
2026-05-07 19:05 39.96649 -5.95979 35876 ft 498 kts 70°
2026-05-07 19:05 39.98750 -5.87374 35886 ft 498 kts 70°
2026-05-07 19:06 40.00841 -5.78753 35888 ft 498 kts 70°
2026-05-07 19:06 40.03944 -5.65878 35894 ft 498 kts 70°
2026-05-07 19:07 40.06020 -5.57261 35901 ft 497 kts 70°
2026-05-07 19:07 40.08090 -5.48642 35910 ft 497 kts 70°
2026-05-07 19:08 40.09512 -5.39836 35909 ft 499 kts 91°
2026-05-07 19:08 40.09119 -5.35343 35905 ft 497 kts 102°
2026-05-07 19:08 40.08475 -5.30891 35897 ft 501 kts 102°
2026-05-07 19:09 40.07144 -5.21865 35899 ft 511 kts 102°
2026-05-07 19:09 40.05781 -5.12689 35900 ft 519 kts 102°
2026-05-07 19:10 40.04406 -5.03383 35899 ft 524 kts 102°
2026-05-07 19:10 40.03011 -4.94008 35899 ft 528 kts 102°
2026-05-07 19:11 40.01601 -4.84591 35904 ft 529 kts 102°
2026-05-07 19:11 40.00180 -4.75163 35903 ft 530 kts 102°
2026-05-07 19:12 39.98742 -4.65733 35910 ft 530 kts 102°
2026-05-07 19:12 39.97315 -4.56351 35915 ft 531 kts 102°
2026-05-07 19:13 39.95864 -4.46909 35920 ft 531 kts 102°
2026-05-07 19:13 39.94399 -4.37469 35921 ft 531 kts 102°
2026-05-07 19:14 39.92939 -4.28032 35925 ft 532 kts 102°
2026-05-07 19:14 39.91468 -4.18583 35929 ft 532 kts 102°
2026-05-07 19:15 39.89989 -4.09141 35927 ft 532 kts 102°
2026-05-07 19:15 39.88498 -3.99694 35927 ft 532 kts 102°
2026-05-07 19:16 39.87003 -3.90248 35928 ft 533 kts 102°
2026-05-07 19:16 39.85498 -3.80802 35930 ft 533 kts 102°
2026-05-07 19:17 39.83977 -3.71350 35929 ft 533 kts 102°
2026-05-07 19:17 39.82446 -3.61905 35930 ft 534 kts 102°
2026-05-07 19:18 39.80918 -3.52458 35935 ft 534 kts 102°
2026-05-07 19:18 39.79379 -3.42993 35935 ft 534 kts 103°
2026-05-07 19:19 39.77822 -3.33548 35939 ft 535 kts 103°
2026-05-07 19:19 39.76272 -3.24143 35942 ft 535 kts 103°
2026-05-07 19:20 39.74706 -3.14684 35946 ft 536 kts 103°
2026-05-07 19:20 39.73129 -3.05210 35953 ft 536 kts 103°
2026-05-07 19:21 39.71542 -2.95741 35958 ft 537 kts 103°
2026-05-07 19:21 39.69943 -2.86264 35967 ft 538 kts 103°
2026-05-07 19:22 39.68334 -2.76773 35971 ft 538 kts 103°
2026-05-07 19:22 39.67018 -2.69053 35978 ft 539 kts 103°
2026-05-07 19:23 39.65425 -2.59704 35926 ft 526 kts 103°
2026-05-07 19:23 39.63851 -2.50537 35972 ft 513 kts 103°
2026-05-07 19:24 39.62307 -2.41600 35978 ft 503 kts 103°
2026-05-07 19:24 39.60758 -2.32684 35986 ft 512 kts 103°
2026-05-07 19:25 39.59172 -2.23586 35996 ft 522 kts 103°
2026-05-07 19:25 39.57554 -2.14333 35995 ft 530 kts 103°
2026-05-07 19:26 39.55907 -2.04971 36001 ft 536 kts 103°
2026-05-07 19:26 39.54229 -1.95524 36000 ft 539 kts 103°
2026-05-07 19:27 39.52549 -1.86057 36012 ft 539 kts 103°
2026-05-07 19:27 39.50875 -1.76672 36012 ft 539 kts 103°
2026-05-07 19:28 39.49171 -1.67207 36015 ft 539 kts 103°
2026-05-07 19:28 39.47457 -1.57749 36017 ft 539 kts 103°
2026-05-07 19:29 39.45736 -1.48308 36021 ft 539 kts 103°
2026-05-07 19:29 39.44020 -1.38859 36020 ft 540 kts 103°
2026-05-07 19:30 39.42297 -1.29411 36005 ft 540 kts 103°
2026-05-07 19:30 39.40556 -1.19969 36007 ft 539 kts 103°
2026-05-07 19:31 39.38812 -1.10536 36020 ft 539 kts 103°
2026-05-07 19:31 39.37065 -1.01114 36017 ft 539 kts 103°
2026-05-07 19:32 39.35315 -0.91768 36018 ft 538 kts 103°
2026-05-07 19:32 39.33548 -0.82387 36018 ft 537 kts 104°
2026-05-07 19:33 39.31779 -0.73010 36019 ft 537 kts 104°
2026-05-07 19:33 39.30010 -0.63656 36015 ft 536 kts 104°
2026-05-07 19:34 39.28691 -0.55842 36017 ft 535 kts 96°
2026-05-07 19:34 39.28694 -0.46291 36007 ft 532 kts 84°
2026-05-07 19:35 39.29202 -0.36763 36006 ft 532 kts 84°
2026-05-07 19:35 39.29707 -0.27222 36005 ft 532 kts 84°
2026-05-07 19:36 39.30208 -0.17689 36007 ft 532 kts 84°
2026-05-07 19:36 39.30683 -0.08284 35976 ft 511 kts 84°
2026-05-07 19:37 39.31126 0.00758 35980 ft 501 kts 84°
2026-05-07 19:37 39.31567 0.09725 35810 ft 500 kts 84°
2026-05-07 19:38 39.31788 0.14191 35336 ft 498 kts 84°
2026-05-07 19:38 39.32008 0.18659 34717 ft 497 kts 84°
2026-05-07 19:38 39.32225 0.23106 34124 ft 496 kts 84°
2026-05-07 19:38 39.32438 0.27548 33468 ft 495 kts 84°
2026-05-07 19:39 39.32648 0.31975 32889 ft 492 kts 84°
2026-05-07 19:39 39.32852 0.36364 32300 ft 489 kts 85°
2026-05-07 19:39 39.33051 0.40744 31748 ft 486 kts 85°
2026-05-07 19:39 39.33247 0.45080 31216 ft 482 kts 85°
2026-05-07 19:40 39.33443 0.49382 30708 ft 478 kts 85°
2026-05-07 19:40 39.33637 0.53627 30335 ft 470 kts 86°
2026-05-07 19:40 39.33829 0.57815 29856 ft 465 kts 86°
2026-05-07 19:40 39.34016 0.61915 29350 ft 459 kts 87°
2026-05-07 19:41 39.34197 0.65969 28624 ft 447 kts 87°
2026-05-07 19:41 39.34372 0.69930 27872 ft 436 kts 88°
2026-05-07 19:41 39.34543 0.73810 27499 ft 417 kts 88°
2026-05-07 19:41 39.34700 0.77439 27246 ft 403 kts 88°
2026-05-07 19:42 39.34851 0.80981 26863 ft 387 kts 89°
2026-05-07 19:42 39.34994 0.84390 26443 ft 374 kts 89°
2026-05-07 19:42 39.35133 0.87685 26032 ft 361 kts 89°
2026-05-07 19:42 39.35268 0.90877 25623 ft 355 kts 89°
2026-05-07 19:43 39.35403 0.94065 25208 ft 355 kts 89°
2026-05-07 19:43 39.35537 0.97242 24777 ft 353 kts 89°
2026-05-07 19:43 39.35669 1.00408 24341 ft 352 kts 89°
2026-05-07 19:43 39.35797 1.03560 23904 ft 351 kts 89°
2026-05-07 19:44 39.35922 1.06711 23445 ft 351 kts 90°
2026-05-07 19:44 39.36045 1.09862 22965 ft 350 kts 89°
2026-05-07 19:44 39.36166 1.12988 22531 ft 347 kts 89°
2026-05-07 19:44 39.36287 1.16095 22098 ft 345 kts 89°
2026-05-07 19:45 39.36410 1.19190 21671 ft 344 kts 89°
2026-05-07 19:45 39.36534 1.22265 21250 ft 342 kts 89°
2026-05-07 19:45 39.36655 1.25329 20823 ft 341 kts 89°
2026-05-07 19:45 39.36775 1.28385 20403 ft 340 kts 89°
2026-05-07 19:46 39.36894 1.31433 19987 ft 340 kts 89°
2026-05-07 19:46 39.37012 1.34480 19584 ft 339 kts 89°
2026-05-07 19:46 39.37130 1.37521 19155 ft 339 kts 89°
2026-05-07 19:46 39.37250 1.40562 18740 ft 339 kts 87°
2026-05-07 19:47 39.37590 1.43579 18336 ft 340 kts 82°
2026-05-07 19:47 39.37989 1.46587 17872 ft 340 kts 82°
2026-05-07 19:47 39.38389 1.49594 17457 ft 338 kts 82°
2026-05-07 19:47 39.38785 1.52585 17038 ft 337 kts 82°
2026-05-07 19:48 39.39177 1.55560 16657 ft 335 kts 82°
2026-05-07 19:48 39.39567 1.58524 16253 ft 334 kts 82°
2026-05-07 19:48 39.39955 1.61482 15840 ft 333 kts 82°
2026-05-07 19:48 39.40340 1.64427 15436 ft 332 kts 82°
2026-05-07 19:49 39.40725 1.67368 15049 ft 331 kts 82°
2026-05-07 19:49 39.41107 1.70304 14653 ft 331 kts 82°
2026-05-07 19:49 39.41481 1.73196 14254 ft 330 kts 82°
2026-05-07 19:49 39.41860 1.76122 13866 ft 330 kts 81°
2026-05-07 19:50 39.42238 1.79040 13432 ft 329 kts 81°
2026-05-07 19:50 39.42614 1.81949 13025 ft 326 kts 81°
2026-05-07 19:50 39.42986 1.84829 12627 ft 324 kts 81°
2026-05-07 19:50 39.43355 1.87687 12230 ft 321 kts 81°
2026-05-07 19:51 39.43720 1.90520 11850 ft 317 kts 81°
2026-05-07 19:51 39.44079 1.93328 11469 ft 314 kts 81°
2026-05-07 19:51 39.44434 1.96114 11086 ft 312 kts 80°
2026-05-07 19:51 39.44774 1.98793 10956 ft 291 kts 80°
2026-05-07 19:52 39.45091 2.01280 10776 ft 272 kts 80°
2026-05-07 19:52 39.45514 2.03623 10388 ft 262 kts 70°
2026-05-07 19:52 39.46116 2.05841 10175 ft 262 kts 70°
2026-05-07 19:52 39.46704 2.08065 9951 ft 260 kts 70°
2026-05-07 19:53 39.47283 2.10272 9724 ft 256 kts 70°
2026-05-07 19:53 39.47832 2.12418 9593 ft 246 kts 75°
2026-05-07 19:53 39.47858 2.14570 9460 ft 238 kts 105°
2026-05-07 19:53 39.47070 2.16375 9321 ft 225 kts 128°
2026-05-07 19:54 39.46052 2.17819 9162 ft 210 kts 131°
2026-05-07 19:54 39.45048 2.19147 8810 ft 204 kts 132°
2026-05-07 19:54 39.44065 2.20431 8348 ft 203 kts 132°
2026-05-07 19:54 39.43072 2.21724 7881 ft 202 kts 132°
2026-05-07 19:55 39.42083 2.23004 7447 ft 200 kts 132°
2026-05-07 19:55 39.41101 2.24270 7025 ft 199 kts 132°
2026-05-07 19:55 39.40123 2.25525 6602 ft 197 kts 132°
2026-05-07 19:55 39.39150 2.26772 6155 ft 196 kts 130°
2026-05-07 19:56 39.38506 2.28256 5728 ft 188 kts 98°
2026-05-07 19:56 39.38408 2.29925 5285 ft 186 kts 89°
2026-05-07 19:56 39.38417 2.31586 5009 ft 182 kts 88°
2026-05-07 19:56 39.38433 2.32680 5014 ft 185 kts 87°
2026-05-07 19:57 39.38457 2.34252 5012 ft 186 kts 87°
2026-05-07 19:57 39.38482 2.35931 5008 ft 186 kts 87°
2026-05-07 19:57 39.38755 2.37541 5008 ft 184 kts 62°
2026-05-07 19:57 39.39417 2.38959 5007 ft 185 kts 58°
2026-05-07 19:58 39.40094 2.40365 5004 ft 184 kts 58°
2026-05-07 19:58 39.40772 2.41778 5010 ft 185 kts 58°
2026-05-07 19:58 39.41449 2.43192 4901 ft 185 kts 58°
2026-05-07 19:58 39.42123 2.44603 4690 ft 184 kts 58°
2026-05-07 19:59 39.42794 2.46008 4454 ft 183 kts 58°
2026-05-07 19:59 39.43464 2.47411 4206 ft 183 kts 58°
2026-05-07 19:59 39.44131 2.48808 3965 ft 182 kts 59°
2026-05-07 19:59 39.44796 2.50203 3721 ft 181 kts 58°
2026-05-07 20:00 39.45457 2.51590 3486 ft 181 kts 58°
2026-05-07 20:00 39.46118 2.52976 3251 ft 180 kts 58°
2026-05-07 20:00 39.46774 2.54353 3005 ft 180 kts 58°
2026-05-07 20:00 39.47423 2.55717 2766 ft 175 kts 58°
2026-05-07 20:01 39.48037 2.57007 2531 ft 162 kts 58°
2026-05-07 20:01 39.48608 2.58207 2311 ft 150 kts 59°
2026-05-07 20:01 39.49137 2.59319 2140 ft 140 kts 59°
2026-05-07 20:01 39.49645 2.60387 1950 ft 137 kts 60°
2026-05-07 20:02 39.50143 2.61435 1766 ft 135 kts 59°
2026-05-07 20:02 39.50632 2.62464 1575 ft 135 kts 60°
2026-05-07 20:02 39.51127 2.63508 1392 ft 135 kts 59°
2026-05-07 20:02 39.51629 2.64565 1209 ft 137 kts 58°
2026-05-07 20:03 39.52127 2.65614 1014 ft 137 kts 56°
2026-05-07 20:03 39.52615 2.66642 839 ft 135 kts 57°
2026-05-07 20:03 39.53112 2.67690 665 ft 133 kts 58°
2026-05-07 20:03 39.53592 2.68703 474 ft 134 kts 56°
2026-05-07 20:04 39.54074 2.69725 290 ft 134 kts 57°
2026-05-07 20:04 39.54562 2.70745 139 ft 133 kts 59°
2026-05-07 20:04 39.55030 2.71734 43 ft 119 kts 58°
2026-05-07 20:04 39.55391 2.72497 37 ft 75 kts 58°
2026-05-07 20:05 39.55586 2.72911 38 ft 42 kts 58°
2026-05-07 20:05 39.55712 2.73201 38 ft 32 kts 82°
2026-05-07 20:05 39.55720 2.73445 38 ft 15 kts 88°
2026-05-07 20:05 39.55720 2.73482 38 ft 0 kts 88°
2026-05-07 20:06 39.55720 2.73500 38 ft 6 kts 95°
2026-05-07 20:06 39.55661 2.73518 38 ft 13 kts 204°
2026-05-07 20:06 39.55591 2.73522 38 ft 12 kts 152°
2026-05-07 20:07 39.55477 2.73614 38 ft 26 kts 148°
2026-05-07 20:07 39.55327 2.73732 38 ft 24 kts 148°
2026-05-07 20:07 39.55191 2.73839 38 ft 22 kts 148°
2026-05-07 20:07 39.55070 2.73935 38 ft 19 kts 149°
2026-05-07 20:08 39.54962 2.74020 38 ft 17 kts 148°
2026-05-07 20:08 39.54869 2.74094 38 ft 14 kts 149°
2026-05-07 20:08 39.54798 2.74123 38 ft 8 kts 209°